Location: The Jewett Observatory
(46.7288°N, 117.1525°W)
Time: 05:10:25
(UTC-07:00)

Daily predictions for brighter satellites

Satellite Brightness Start Highest point End
(mag) Time Altitude Azimuth Time Altitude Azimuth Time Altitude Azimuth
Cosmos 2297 Rocket 4.1 00:06:38 10° NNW 00:09:07 26° N 00:09:07 26° N
ATLAS 3B R/B 3.7 00:27:49 43° NNE 00:27:49 43° NNE 00:32:34 10° NE
USA 215 4.4 00:25:49 10° NE 00:31:46 39° N 00:37:42 10° WNW
CZ-4C R/B 4.2 00:32:54 26° NNW 00:33:23 26° NNW 00:38:42 10° NNE
Cosmos 2227 Rocket 4.3 00:32:37 10° NNW 00:34:30 22° NNW 00:34:30 22° NNW
Cosmos 2263 Rocket 4.5 01:00:43 10° N 01:04:19 17° NE 01:04:19 17° NE
SL-16 R/B 4.4 01:35:34 21° ENE 01:36:34 22° ENE 01:41:11 10° N
COSMOS 2455 4.4 01:49:34 31° N 01:49:34 31° N 01:53:06 10° NNE
CENTAUR R/B 3.8 01:57:06 35° ENE 01:57:06 35° ENE 02:01:11 10° NE
Cosmos 2322 Rocket 4.0 02:11:28 25° ENE 02:11:28 25° ENE 02:14:10 10° NE
CZ-2D R/B 4.3 02:06:39 10° NE 02:09:36 18° ENE 02:09:36 18° ENE
USA 215 4.4 02:07:57 10° ENE 02:13:54 39° N 02:19:51 10° NW
SL-16 R/B 3.9 02:18:12 28° ENE 02:18:12 28° ENE 02:21:16 10° NE
ATLAS 3B R/B 4.5 02:15:01 21° NW 02:17:31 25° NNW 02:23:15 10° NNE
Cosmos 1697 Rocket 4.2 02:21:41 31° N 02:21:41 31° N 02:24:51 10° NNE
Cosmos 2360 Rocket 4.0 02:39:21 24° E 02:39:21 24° E 02:43:06 10° NE
Cosmos 1980 Rocket 3.4 02:41:09 37° N 02:41:09 37° N 02:44:44 10° NNE
ATLAS 5 CENTAUR R/B 4.4 02:40:42 10° NNW 02:45:14 24° NNE 02:50:06 10° E
ARIANE 5 R/B 4.1 02:41:00 10° NNE 02:44:33 31° ENE 02:44:33 31° ENE
Cosmos 2263 Rocket 3.8 02:43:39 10° NNW 02:45:58 26° NNW 02:45:58 26° NNW
Cosmos 2315 Rocket 4.2 03:01:56 64° ENE 03:01:56 64° ENE 03:07:42 10° NNE
Cosmos 1709 Rocket 4.2 03:01:59 10° N 03:07:11 64° N 03:07:11 64° N
IRS-1D 4.2 03:10:11 10° NNE 03:13:57 49° NE 03:13:57 49° NE
SL-16 R/B 2.7 03:20:39 62° NW 03:20:39 62° NW 03:25:50 10° NNW
Cosmos 2322 4.4 03:21:19 46° ESE 03:21:27 46° ESE 03:26:54 10° NE
ADEOS Rocket 2.8 03:26:22 10° NNE 03:31:55 69° ESE 03:32:02 69° ESE
Okean O Rocket 4.2 03:32:39 10° NE 03:35:30 16° E 03:38:13 10° SE
Cosmos 1455 Rocket 4.0 03:32:13 10° N 03:36:13 47° ENE 03:36:13 47° ENE
COBE Rocket 4.2 03:36:14 10° NNE 03:41:22 64° E 03:41:39 63° ESE
Resurs 1-4 Rocket 2.1 03:36:06 10° NNE 03:40:54 71° NNW 03:40:54 71° NNW
CENTAUR R/B 3.3 03:44:16 39° WNW 03:45:25 42° NW 03:52:13 10° NE
Celestis-02/Orion 38 4.5 03:40:49 10° NNE 03:45:50 82° E 03:45:50 82° E
Meteor 1-18 Rocket 4.5 03:44:58 52° SE 03:46:03 63° E 03:51:37 10° NNE
Cosmos 1975 Rocket 4.0 03:47:55 41° N 03:47:55 41° N 03:50:50 10° N
SL-8 R/B 4.0 03:48:20 65° ENE 03:48:20 65° ENE 03:52:30 10° E
CZ-2D R/B 4.0 03:45:02 10° NNE 03:49:10 59° E 03:49:10 59° E
CZ-2D R/B 2.2 03:45:36 10° N 03:50:56 68° WNW 03:50:56 68° WNW
Cosmos 2322 Rocket 2.8 03:53:16 41° NW 03:53:16 41° NW 03:58:25 10° NNE
SL-08 ROCKET BODY 4.2 03:48:58 10° N 03:54:51 78° W 03:55:29 69° SSW
USA 215 3.5 03:49:51 10° ESE 03:56:20 68° NNE 04:02:50 10° NW
Okean 1 3.8 03:59:23 60° ENE 03:59:23 60° ENE 04:03:03 10° NNE
Meteor 1-12 Rocket 4.2 03:54:14 10° N 03:59:56 86° E 04:02:20 37° SSE
SL-16 R/B 2.9 04:00:03 38° NW 04:00:09 38° NW 04:05:27 10° NNE
ADEOS II 3.9 03:56:44 10° NE 04:01:15 28° E 04:05:43 10° SSE
Cosmos 2184 Rocket 3.8 03:55:51 10° N 04:02:05 82° W 04:04:34 39° S
Cosmos 2219 Rocket 3.7 03:59:35 16° SSE 04:03:04 30° ESE 04:07:53 10° NE
Cosmos 1844 Rocket 2.8 04:00:03 10° NNW 04:05:39 73° ENE 04:11:13 10° SSE
Cosmos 1536 Rocket 4.1 04:05:30 47° SE 04:06:26 58° E 04:10:51 10° NNE
Cosmos 2237 4.3 04:07:18 47° S 04:08:57 72° ESE 04:14:41 10° NNE
MOS 1 Rocket 3.6 04:07:13 10° NNE 04:11:52 59° E 04:13:16 39° SSE
Cosmos 1975 3.5 04:08:48 10° NNW 04:11:46 46° NNW 04:11:46 46° NNW
COSMOS 2428 3.0 04:11:12 36° S 04:13:23 62° ESE 04:19:01 10° NNE
Cosmos 1238 Rocket 3.9 04:16:33 27° ESE 04:16:52 28° E 04:19:32 10° NNE
ADEOS 4.2 04:13:15 10° N 04:18:03 37° WNW 04:18:03 37° WNW
Cosmos 1340 2.8 04:20:03 67° N 04:20:03 67° N 04:23:25 10° N
Cosmos 1867 4.0 04:14:23 10° NNW 04:19:50 62° NE 04:25:14 10° SE
MOZ.5/SAFIR/RUBIN 5/SL-8 4.3 04:22:38 42° WNW 04:22:38 42° WNW 04:26:10 10° NNW
Cosmos 2360 Rocket 2.3 04:21:07 49° WSW 04:22:13 57° WNW 04:27:50 10° NNE
Cosmos 1812 3.9 04:25:19 31° NW 04:25:19 31° NW 04:27:49 10° N
Cosmos 1980 Rocket 4.2 04:22:54 13° NW 04:24:27 14° NW 04:27:19 10° N
ARIANE 5 R/B 3.3 04:20:11 10° N 04:24:48 35° WNW 04:24:54 35° WNW
Cosmos 2278 Rocket 3.1 04:21:04 10° NNW 04:26:36 49° ENE 04:32:05 10° SE
MOS 1-B 4.3 04:22:48 10° NNE 04:28:40 87° WNW 04:31:45 30° SSW
ATLAS 5 CENTAUR R/B 2.6 04:24:58 10° NW 04:30:52 73° NE 04:37:19 10° SE
Cosmos 1666 3.7 04:27:19 10° N 04:31:06 48° ENE 04:34:51 10° SSE
Cosmos 2237 Rocket 3.8 04:29:08 10° SSE 04:34:06 32° ESE 04:39:05 10° NE
Cosmos 1898 Rocket 3.7 04:29:45 10° NNW 04:34:58 70° ENE 04:40:08 10° SSE
Cosmos 2154 Rocket 3.9 04:30:11 10° N 04:36:25 83° W 04:42:36 10° S
Meteor 2-13 Rocket 4.5 04:31:27 10° NNW 04:37:26 55° W 04:41:26 21° SSW
Cosmos 1570 Rocket 3.9 04:37:49 37° SW 04:39:53 75° WNW 04:45:08 10° NNE
Cosmos 1743 2.5 04:40:03 10° NNW 04:43:55 73° W 04:45:43 30° S
Meteor 1-19 Rocket 4.4 04:41:03 11° S 04:46:30 77° E 04:52:17 10° NNE
Meteor 2-4 Rocket 4.2 04:43:17 10° S 04:48:41 57° E 04:54:00 10° NNE
BREEZE M DEB (TANK) 3.8 04:36:21 10° WNW 04:51:46 84° SSW 04:56:01 10° ESE
SL-8 Rocket 4.5 04:45:48 10° N 04:51:59 63° ENE 04:58:05 10° SSE
Nadezhda 1 Rocket 4.1 04:51:29 25° SW 04:54:51 52° WNW 05:00:47 10° N
Cosmos 858 Rocket 4.5 04:49:42 10° NNW 04:55:01 88° ENE 05:00:17 10° SSE
UNKNOWN OBJECT B 4.4 04:56:38 10° NNW 04:58:54 19° WNW 04:58:54 19° WNW
Cosmos 2333 Rocket 2.5 04:55:15 12° SSW 05:00:35 67° ESE 05:06:19 10° NNE
Cosmos 1937 Rocket 3.6 04:55:32 10° NNW 05:00:54 83° ENE 05:06:13 10° SSE
PAYLOAD B 4.2 04:55:18 10° NNE 05:00:57 89° WNW 05:06:34 10° SSW
Cosmos 2181 Rocket 4.1 04:56:01 10° S 05:02:15 83° E 05:08:37 10° N
Cosmos 1025 Rocket 3.5 04:58:50 10° S 05:03:09 62° E 05:07:32 10° NNE
Meteor 1-31 Rocket 4.4 04:59:56 10° NNE 05:03:26 33° E 05:06:54 10° SSE
SL-16 R/B 4.3 05:05:43 12° WNW 05:05:43 12° WNW 05:07:00 10° WNW
EO 1 Del DPAF 3.4 05:05:46 10° S 05:09:32 51° W 05:13:19 10° NNW
IRS-1C Rocket 4.0 05:05:47 10° NNE 05:11:03 76° WNW 05:16:17 10° SSW
Okean O Rocket 1.7 05:07:51 10° N 05:12:14 57° WNW 05:15:42 16° SSW
Iridium 2 4.1 05:08:49 10° N 05:12:37 65° E 05:16:27 10° SSE
Okean 2 4.1 05:09:38 10° S 05:13:43 57° E 05:17:50 10° NNE
ERS-2 3.1 05:11:52 10° NNE 05:15:30 49° ESE 05:19:05 10° S
ADEOS Rocket 4.2 05:13:02 10° NNW 05:16:56 20° WNW 05:19:00 16° W
NOSS 0 Rocket 4.0 05:11:31 10° SSW 05:17:41 79° ESE 05:23:51 10° NNE
USA 116 4.3 05:14:03 10° SSE 05:18:31 83° ENE 05:23:33 10° NNW
Resurs 1-4 Rocket 3.9 05:17:53 10° NNW 05:20:23 14° NW 05:21:59 12° WNW
Cosmos 2341 Rocket 4.1 05:14:21 10° NNW 05:20:24 53° W 05:26:24 10° SSW
Cosmos 1844 4.1 05:15:26 10° NW 05:20:47 40° WSW 05:26:02 10° S
Cosmos 1892 Rocket 4.5 05:18:24 10° S 05:22:37 51° E 05:26:53 10° NNE
Cosmos 2218 Rocket 4.1 05:16:52 10° N 05:23:18 88° ENE 05:29:38 10° S
ERBS 3.2 05:19:55 10° NW 05:23:20 51° NNE 05:26:46 10° ESE
CZ-4B R/B 3.2 05:20:20 10° N 05:23:43 38° WNW 05:26:02 18° SW
Aureole 2 Rocket 2.3 05:21:52 10° SSW 05:25:24 83° ESE 05:28:38 10° NNE
Cosmos 1814 Rocket 4.0 05:22:10 10° SSW 05:27:21 86° ESE 05:32:33 10° NNE
CZ-4B R/B 3.3 05:22:52 10° N 05:28:27 60° WNW 05:33:53 10° SSW
DELTA 2 R/B (1) 4.3 05:25:34 17° WSW 05:29:21 40° S 05:34:29 10° ESE
Okean-O 3.1 05:25:28 10° NNE 05:29:54 65° ESE 05:34:18 10° S
CZ-2D R/B 4.1 05:27:57 10° NNW 05:30:08 12° NW 05:32:16 10° WNW
SL-8 R/B 4.0 05:26:20 14° W 05:30:09 48° SSW 05:34:45 10° SE
Cosmos 2298 Rocket 4.3 05:25:31 10° NNW 05:30:38 47° WSW 05:35:43 10° S
CZ-4B DEB 4.4 05:26:25 10° N 05:31:52 57° WNW 05:37:16 10° SW
SL-16 R/B 3.6 05:26:53 10° S 05:32:07 40° ESE 05:37:23 10° NE
CENTAUR R/B 4.5 05:32:58 10° WNW 05:38:10 22° N 05:43:50 10° NE
Cosmos 2322 Rocket 4.4 05:37:38 10° NW 05:38:49 11° NNW 05:40:00 10° NNW
CZ-2C R/B 4.3 05:35:15 10° SSW 05:39:22 33° W 05:43:27 10° NNW
USA 215 3.6 05:33:22 10° SSE 05:39:34 45° SW 05:45:48 10° WNW
ADEOS II 2.5 05:36:09 10° N 05:41:07 43° WNW 05:46:04 10° SW
Cosmos 1980 3.7 05:35:53 10° SSW 05:41:32 75° WNW 05:47:13 10° NNE
GENESIS II 4.3 05:39:37 11° SW 05:43:36 70° NW 05:47:41 10° NNE
SL-16 R/B 4.4 05:45:23 10° NW 05:46:01 10° NNW 05:46:40 10° NNW
Cosmos 2219 Rocket 2.6 05:41:27 10° SW 05:46:49 47° NW 05:52:13 10° NNE
Cosmos 1844 Rocket 3.9 05:45:13 10° WNW 05:48:53 18° W 05:52:33 10° SW
PSLV R/B 4.3 05:45:04 10° N 05:48:59 33° WNW 05:52:54 10° SW
Meteor 1-28 Rocket 4.1 05:46:48 10° SSE 05:50:31 54° ENE 05:54:17 10° N
USA 229 DEB 3.9 05:48:02 10° SW 05:54:48 60° NW 06:01:45 10° NE
USA 229 3.9 05:48:08 10° SW 05:54:54 61° NW 06:01:50 10° NE
Cosmos 2285 Rocket 4.3 05:49:04 10° SW 05:55:21 54° WNW 06:01:40 10° NNE
Cosmos 1238 Rocket 4.3 05:55:46 10° W 05:56:53 12° WNW 05:58:01 10° NW
COSMOS 2428 3.9 05:53:21 10° WSW 05:58:07 27° NW 06:02:53 10° N
Cosmos 2058 Rocket 3.1 05:54:02 10° NNW 05:58:29 65° W 06:02:53 10° S
SKYMED 2 3.6 05:54:58 10° SSE 05:59:18 88° ENE 06:03:40 10° NNW
Cosmos 1346 3.0 05:56:29 10° S 05:59:19 78° E 06:02:11 10° NNE
ATLAS 3B R/B 4.2 05:57:30 10° NNW 06:03:47 34° NNE 06:09:47 10° E
CZ-4C R/B 3.1 05:57:42 10° NW 06:04:43 79° NE 06:12:33 10° SE
Meteor 2-21 Rocket 4.5 06:00:29 10° NNW 06:06:42 74° W 06:12:52 10° S
NOSS 3-1 (A) 3.9 06:01:06 10° SSW 06:06:53 67° SE 06:13:26 10° NE
Radarsat Rocket 4.3 06:00:59 10° NNE 06:06:57 72° ESE 06:12:45 10° S
Cosmos 2366 rocket 4.2 06:02:10 10° NNW 06:08:17 50° W 06:14:22 10° SSW
